Location: Bonny Doon Airfield
(37.0704°N, 122.1252°W)
Time: 11:39:22
(UTC-07:00)

ISS - Pass Details

Date: 11 October 2017
Orbit: 401 x 408 km, 51.6° (Epoch: 19 October)

Event Time Altitude Azimuth Distance (km) Brightness Sun altitude
Rises 20:32:02 0° 314° (NW) 2,324 0.9 -23.8°
Reaches altitude 10° 20:34:09 10° 320° (NW) 1,463 -0.4 -24.2°
Enters shadow 20:35:35 23° 330° (NNW) 918 -1.7 -24.5°
